• In Belgium
  • List of Countries
  • For 7 days
  • Water Temperature
  • Satellite Maps
  • Weather Map
  • Weather Widgets
  • user-avatar
    Login

    Hourly Weather Bouillon

    Today, 22 October, Monday

    Time Temperature Precipitation Wind Pressure Humidity
    00:00 +7°C° 0 mm 1 mps 732 mmHg 82%
    01:00 +7°C° 0 mm 1 mps 732 mmHg 82%
    02:00 +7°C° 0 mm 1 mps 733 mmHg 82%
    03:00 +7°C° 0 mm 1 mps 733 mmHg 82%
    04:00 +7°C° 0 mm 1 mps 733 mmHg 84%
    05:00 +6°C° 0 mm 2 mps 733 mmHg 85%
    06:00 +6°C° 0 mm 2 mps 734 mmHg 81%
    07:00 +7°C° 0 mm 2 mps 734 mmHg 80%
    08:00 +9°C° 0 mm 3 mps 734 mmHg 78%
    09:00 +10°C° 0 mm 3 mps 735 mmHg 77%
    10:00 +11°C° 0 mm 4 mps 735 mmHg 78%
    11:00 +11°C° 0 mm 4 mps 735 mmHg 79%
    12:00 +12°C° 0 mm 5 mps 736 mmHg 80%
    13:00 +12°C° 0 mm 5 mps 736 mmHg 78%
    14:00 +12°C° 0 mm 5 mps 736 mmHg 76%
    15:00 +12°C° 0 mm 5 mps 736 mmHg 74%
    16:00 +10°C° 0 mm 4 mps 736 mmHg 76%
    17:00 +8°C° 0 mm 4 mps 737 mmHg 78%
    18:00 +8°C° 0 mm 3 mps 737 mmHg 80%
    19:00 +7°C° 0 mm 3 mps 737 mmHg 84%
    20:00 +4°C° 0 mm 3 mps 737 mmHg 87%
    21:00 +4°C° 0 mm 2 mps 738 mmHg 91%
    22:00 +4°C° 0 mm 2 mps 737 mmHg 92%
    23:00 +3°C° 0 mm 2 mps 737 mmHg 92%

    Tomorrow, 23 October, Tuesday

    Time Temperature Precipitation Wind Pressure Humidity
    00:00 +3°C° 0 mm 2 mps 737 mmHg 92%
    01:00 +4°C° 0 mm 1 mps 737 mmHg 92%
    02:00 +3°C° 0 mm 1 mps 737 mmHg 92%
    03:00 +3°C° 0 mm 1 mps 736 mmHg 92%
    04:00 +3°C° 0 mm 1 mps 736 mmHg 92%
    05:00 +3°C° 0 mm 1 mps 736 mmHg 92%
    06:00 +3°C° 0 mm 1 mps 736 mmHg 92%
    07:00 +4°C° 0 mm 2 mps 736 mmHg 87%
    08:00 +5°C° 0 mm 3 mps 736 mmHg 81%
    09:00 +8°C° 0 mm 3 mps 736 mmHg 75%
    10:00 +8°C° 0 mm 4 mps 736 mmHg 71%
    11:00 +10°C° 0 mm 4 mps 735 mmHg 67%
    12:00 +10°C° 0 mm 5 mps 735 mmHg 63%
    13:00 +12°C° 0 mm 4 mps 735 mmHg 64%
    14:00 +12°C° 0 mm 4 mps 734 mmHg 65%
    15:00 +12°C° 0 mm 4 mps 734 mmHg 65%
    16:00 +10°C° 0 mm 4 mps 734 mmHg 73%
    17:00 +9°C° 0 mm 3 mps 734 mmHg 80%
    18:00 +7°C° 0 mm 3 mps 733 mmHg 88%
    19:00 +7°C° 0 mm 3 mps 733 mmHg 89%
    20:00 +5°C° 0 mm 3 mps 733 mmHg 90%
    21:00 +5°C° 0 mm 3 mps 733 mmHg 91%
    22:00 +6°C° 0 mm 2 mps 733 mmHg 92%
    23:00 +6°C° 0 mm 2 mps 733 mmHg 93%

    Day after tomorrow, 24 October, Wednesday

    Time Temperature Precipitation Wind Pressure Humidity
    00:00 +6°C° 0 mm 2 mps 733 mmHg 94%
    01:00 +6°C° 0 mm 2 mps 733 mmHg 94%
    02:00 +7°C° 0 mm 2 mps 733 mmHg 95%
    03:00 +7°C° 0 mm 2 mps 733 mmHg 96%
    04:00 +7°C° 0 mm 2 mps 733 mmHg 96%
    05:00 +8°C° 0 mm 3 mps 733 mmHg 96%
    06:00 +8°C° 0 mm 3 mps 733 mmHg 96%
    07:00 +9°C° 0 mm 3 mps 733 mmHg 95%
    08:00 +10°C° 0 mm 3 mps 733 mmHg 94%
    09:00 +10°C° 0 mm 3 mps 733 mmHg 93%
    10:00 +11°C° 0 mm 3 mps 733 mmHg 92%
    11:00 +11°C° 0 mm 3 mps 733 mmHg 92%
    12:00 +11°C° 0 mm 3 mps 733 mmHg 92%
    13:00 +12°C° 0 mm 3 mps 733 mmHg 91%
    14:00 +12°C° 0 mm 3 mps 733 mmHg 91%
    15:00 +12°C° 0 mm 3 mps 732 mmHg 91%
    16:00 +12°C° 0 mm 2 mps 732 mmHg 93%
    17:00 +12°C° 0 mm 2 mps 732 mmHg 95%
    18:00 +10°C° 0 mm 2 mps 732 mmHg 97%
    19:00 +10°C° 0 mm 2 mps 732 mmHg 97%
    20:00 +10°C° 0 mm 2 mps 732 mmHg 97%
    21:00 +11°C° 0 mm 1 mps 732 mmHg 97%
    22:00 +11°C° 0 mm 1 mps 732 mmHg 97%
    23:00 +10°C° 0 mm 1 mps 732 mmHg 97%

    25 October, Thursday

    Time Temperature Precipitation Wind Pressure Humidity
    00:00 +10°C° 0 mm 1 mps 731 mmHg 97%
    01:00 +10°C° 0 mm 1 mps 731 mmHg 97%
    02:00 +9°C° 0 mm 2 mps 730 mmHg 97%
    03:00 +8°C° 0 mm 2 mps 730 mmHg 97%
    04:00 +8°C° 0 mm 2 mps 730 mmHg 97%
    05:00 +8°C° 0 mm 2 mps 729 mmHg 97%
    06:00 +8°C° 0 mm 2 mps 729 mmHg 97%
    07:00 +9°C° 0 mm 2 mps 729 mmHg 94%
    08:00 +9°C° 0 mm 2 mps 729 mmHg 92%
    09:00 +9°C° 0 mm 2 mps 730 mmHg 89%
    10:00 +10°C° 0 mm 2 mps 729 mmHg 86%
    11:00 +11°C° 0 mm 1 mps 729 mmHg 83%
    12:00 +11°C° 0 mm 1 mps 729 mmHg 80%
    13:00 +11°C° 0 mm 1 mps 729 mmHg 79%
    14:00 +11°C° 0 mm 1 mps 728 mmHg 78%
    15:00 +11°C° 0 mm 1 mps 728 mmHg 77%
    16:00 +9°C° 0 mm 0 mps 727 mmHg 81%
    17:00 +8°C° 0 mm 0 mps 727 mmHg 85%
    18:00 +7°C° 0 mm 0 mps 727 mmHg 89%
    19:00 +6°C° 0 mm 0 mps 726 mmHg 90%
    20:00 +6°C° 0 mm 0 mps 726 mmHg 91%
    21:00 +5°C° 0 mm 0 mps 726 mmHg 93%
    22:00 +5°C° 0 mm 1 mps 725 mmHg 93%
    23:00 +5°C° 0 mm 1 mps 725 mmHg 94%

    26 October, Friday

    Time Temperature Precipitation Wind Pressure Humidity
    00:00 +5°C° 0 mm 1 mps 724 mmHg 95%
    01:00 +5°C° 0 mm 1 mps 724 mmHg 95%
    02:00 +4°C° 0 mm 1 mps 723 mmHg 95%
    03:00 +4°C° 0 mm 1 mps 723 mmHg 96%
    04:00 +4°C° 0 mm 1 mps 722 mmHg 96%
    05:00 +4°C° 0 mm 1 mps 722 mmHg 96%
    06:00 +4°C° 0 mm 1 mps 722 mmHg 97%
    07:00 +5°C° 0 mm 1 mps 721 mmHg 94%
    08:00 +6°C° 0 mm 2 mps 721 mmHg 91%
    09:00 +7°C° 0 mm 2 mps 721 mmHg 88%
    10:00 +8°C° 0 mm 2 mps 721 mmHg 84%
    11:00 +9°C° 0 mm 2 mps 721 mmHg 81%
    12:00 +10°C° 0 mm 3 mps 720 mmHg 77%
    13:00 +9°C° 0.2 mm 3 mps 720 mmHg 80%
    14:00 +9°C° 0.2 mm 3 mps 720 mmHg 83%
    15:00 +8°C° 0.2 mm 3 mps 719 mmHg 85%
    16:00 +8°C° 0.4 mm 2 mps 719 mmHg 89%
    17:00 +7°C° 0.4 mm 2 mps 719 mmHg 92%
    18:00 +6°C° 0.4 mm 2 mps 719 mmHg 96%
    19:00 +6°C° 0.4 mm 2 mps 719 mmHg 95%
    20:00 +6°C° 0.4 mm 2 mps 719 mmHg 94%
    21:00 +5°C° 0.4 mm 2 mps 719 mmHg 93%
    22:00 +5°C° 0.1 mm 2 mps 719 mmHg 93%
    23:00 +5°C° 0.1 mm 2 mps 719 mmHg 92%

    27 October, Saturday

    Time Temperature Precipitation Wind Pressure Humidity
    00:00 +4°C° 0.1 mm 2 mps 718 mmHg 92%
    01:00 +4°C° 0.1 mm 2 mps 718 mmHg 92%
    02:00 +5°C° 0.1 mm 1 mps 718 mmHg 92%
    03:00 +4°C° 0.1 mm 1 mps 717 mmHg 92%
    04:00 +4°C° 0.1 mm 1 mps 717 mmHg 93%
    05:00 +2°C° 0.1 mm 2 mps 717 mmHg 93%
    06:00 +2°C° 0.1 mm 2 mps 717 mmHg 94%
    07:00 +3°C° 0 mm 2 mps 717 mmHg 90%
    08:00 +4°C° 0 mm 2 mps 717 mmHg 87%
    09:00 +4°C° 0 mm 2 mps 717 mmHg 83%
    10:00 +4°C° 0.1 mm 3 mps 717 mmHg 78%
    11:00 +5°C° 0.1 mm 3 mps 717 mmHg 72%
    12:00 +6°C° 0.1 mm 4 mps 717 mmHg 66%
    13:00 +6°C° 0.1 mm 4 mps 716 mmHg 67%
    14:00 +5°C° 0.1 mm 3 mps 716 mmHg 68%
    15:00 +5°C° 0.1 mm 3 mps 716 mmHg 68%
    16:00 +4°C° 0.1 mm 3 mps 715 mmHg 76%
    17:00 +3°C° 0.1 mm 2 mps 715 mmHg 83%
    18:00 +1°C° 0.1 mm 2 mps 715 mmHg 90%
    19:00 +2°C° 0 mm 1 mps 715 mmHg 92%
    20:00 +2°C° 0 mm 1 mps 715 mmHg 93%
    21:00 +1°C° 0 mm 1 mps 714 mmHg 95%
    22:00 +1°C° 0 mm 1 mps 714 mmHg 94%
    23:00 +2°C° 0 mm 1 mps 714 mmHg 94%

    28 October, Sunday

    Time Temperature Precipitation Wind Pressure Humidity
    00:00 +2°C° 0 mm 1 mps 714 mmHg 94%
    01:00 +1°C° 0 mm 2 mps 714 mmHg 94%
    02:00 -1°C° 0 mm 2 mps 714 mmHg 95%
    03:00 -1°C° 0 mm 2 mps 713 mmHg 95%
    04:00 -1°C° 0 mm 2 mps 713 mmHg 95%
    05:00 0°C° 0 mm 3 mps 714 mmHg 94%
    06:00 0°C° 0 mm 3 mps 714 mmHg 94%
    07:00 0°C° 0.2 mm 3 mps 714 mmHg 93%
    08:00 +1°C° 0.2 mm 3 mps 715 mmHg 91%
    09:00 +2°C° 0.2 mm 3 mps 715 mmHg 90%
    10:00 +3°C° 0.1 mm 3 mps 716 mmHg 88%
    11:00 +3°C° 0.1 mm 3 mps 716 mmHg 85%
    12:00 +4°C° 0.1 mm 3 mps 716 mmHg 83%
    13:00 +4°C° 0.1 mm 3 mps 717 mmHg 82%
    14:00 +4°C° 0.1 mm 3 mps 717 mmHg 81%
    15:00 +4°C° 0.1 mm 3 mps 717 mmHg 80%
    16:00 +4°C° 0 mm 2 mps 718 mmHg 84%
    17:00 +3°C° 0 mm 2 mps 718 mmHg 88%
    18:00 +2°C° 0 mm 2 mps 719 mmHg 92%
    19:00 +2°C° 0 mm 2 mps 719 mmHg 93%
    20:00 +1°C° 0 mm 2 mps 720 mmHg 93%
    21:00 +1°C° 0 mm 2 mps 720 mmHg 94%
    22:00 -1°C° 0 mm 2 mps 720 mmHg 94%
    23:00 -1°C° 0 mm 2 mps 721 mmHg 95%
    Show more